Location: Barnston
(51.8500°N, 0.4000°E)
Time: 16:05:54
(UTC+00:00)

Nadezhda 4 Rocket - Pass Details

Date: 26 September 2023
Orbit: 948 x 993 km, 82.9° (Epoch: 08 December)

Event Time Altitude Azimuth Distance (km) Brightness Sun altitude
Exits shadow 02:40:23 49° 302° (WNW) 1,265 4.4 -28.0°
Drops below altitude 10° 02:46:03 10° 3° (N) 2,767 6.8 -27.3°
Sets 02:48:42 0° 8° (N) 3,722 7.7 -27.0°
